Sunlight Mountain, CO

8:27 AM MDT on August 19, 2017 (GMT -0600)
Sunlight Mountain

Weather History for K5SM - September, 2013

Change the Weather History Date:

Thursday, September 26, 2013

  Actual Average (KRIL) Record (KRIL)
Temperature  
Mean Temperature 48 °F -  
Max Temperature 59 °F 75 °F 88 °F (1963)
Min Temperature 37 °F 37 °F 21 °F (1937)
Degree Days  
Heating Degree Days 17    
Moisture  
Dew Point 27 °F    
Average Humidity 50    
Maximum Humidity 66    
Minimum Humidity 31    
Precipitation  
Precipitation 0.00 in - - ()
Sea Level Pressure  
Sea Level Pressure 30.00 in    
Wind  
Wind Speed 2 mph (SSW)    
Max Wind Speed 6 mph    
Max Gust Speed -    
Visibility 10 miles    
Events Rain    
Averages and records for this station are not official NWS values.
T = Trace of Precipitation, MM = Missing Value Source: NWS Daily Summary

Daily Weather History Graph

Daily Weather History Graph

Search for Another Location

Airport or City:

Trip Planner

Search our weather history database for the weather conditions in past years. The results will help you decide how hot, cold, wet, or windy it might be!

Date:

Astronomy

Sep. 26, 2013 Rise Set
Actual Time 7:01 AM MDT 6:59 PM MDT
Civil Twilight 6:34 AM MDT 7:26 PM MDT
Nautical Twilight 6:03 AM MDT 7:57 PM MDT
Astronomical Twilight 5:31 AM MDT 8:29 PM MDT
Moon No Moon Rise 1:54 PM MDT (9/26)
Length of Visible Light 12h 51m
Length of Day
11h 58m
Waning Gibbous, 54% of the Moon is Illuminated
Sep 26
Waning Gibbous
Sep 26
Last Quarter
Oct 4
New
Oct 11
First Quarter
Oct 18
Full

Hourly Weather History & Observations

Time (MDT) Temp. Windchill Dew Point Humidity Pressure Visibility Wind Dir Wind Speed Gust Speed Precip Events Conditions
12:15 AM 42.8 °F 41.1 °F 30.2 °F 61% 29.94 in 10.0 mi South 3.5 mph - N/A   Clear
12:35 AM 42.8 °F 40.1 °F 30.2 °F 61% 29.94 in 10.0 mi South 4.6 mph - N/A   Clear
12:55 AM 42.8 °F 39.3 °F 30.2 °F 61% 29.95 in 10.0 mi South 5.8 mph - N/A   Clear
1:15 AM 42.8 °F - 28.4 °F 57% 29.95 in 10.0 mi Calm Calm - N/A   Clear
1:35 AM 41.0 °F 38.0 °F 30.2 °F 65% 29.96 in 10.0 mi South 4.6 mph - N/A   Clear
1:55 AM 41.0 °F 39.0 °F 28.4 °F 61% 29.96 in 10.0 mi SSW 3.5 mph - N/A   Clear
2:15 AM 41.0 °F 38.0 °F 28.4 °F 61% 29.97 in 10.0 mi South 4.6 mph - N/A   Clear
2:35 AM 41.0 °F 39.0 °F 28.4 °F 61% 29.97 in 10.0 mi SSW 3.5 mph - N/A   Clear
2:55 AM 41.0 °F 37.1 °F 28.4 °F 61% 29.96 in 10.0 mi SSW 5.8 mph - N/A   Clear
3:15 AM 41.0 °F 39.0 °F 28.4 °F 61% 29.96 in 10.0 mi SSW 3.5 mph - N/A   Clear
3:35 AM 41.0 °F - 26.6 °F 57% 29.97 in 10.0 mi Calm Calm - N/A   Clear
3:55 AM 39.2 °F 37.0 °F 28.4 °F 65% 29.98 in 10.0 mi South 3.5 mph - N/A   Clear
4:15 AM 39.2 °F - 28.4 °F 65% 29.98 in 10.0 mi Calm Calm - N/A   Clear
4:35 AM 39.2 °F - 26.6 °F 61% 29.98 in 10.0 mi Calm Calm - N/A   Clear
4:55 AM 39.2 °F 37.0 °F 26.6 °F 61% 29.99 in 10.0 mi SSE 3.5 mph - N/A   Clear
5:15 AM 39.2 °F - 26.6 °F 61% 29.99 in 10.0 mi Calm Calm - N/A   Clear
5:35 AM 37.4 °F - 26.6 °F 65% 29.99 in 10.0 mi Calm Calm - N/A   Clear
5:54 AM 37.4 °F - 24.8 °F 60% 29.99 in 10.0 mi Calm Calm - N/A   Clear
6:15 AM 37.4 °F 34.9 °F 24.8 °F 60% 29.99 in 10.0 mi South 3.5 mph - N/A   Clear
6:35 AM 37.4 °F 34.9 °F 24.8 °F 60% 29.99 in 10.0 mi SSE 3.5 mph - N/A   Clear
6:55 AM 37.4 °F - 26.6 °F 65% 30.00 in 10.0 mi Calm Calm - N/A   Clear
7:15 AM 39.2 °F - 23.0 °F 52% 30.00 in 10.0 mi Calm Calm - N/A   Clear
7:35 AM 39.2 °F - 23.0 °F 52% 30.02 in 10.0 mi Calm Calm - N/A   Clear
7:55 AM 41.0 °F - 23.0 °F 49% 30.01 in 10.0 mi Calm Calm - N/A   Clear
8:15 AM 41.0 °F - 23.0 °F 49% 30.01 in 10.0 mi Calm Calm - N/A   Clear
8:35 AM 41.0 °F - 23.0 °F 49% 30.02 in 10.0 mi Calm Calm - N/A   Clear
8:54 AM 42.8 °F - 23.0 °F 46% 30.02 in 10.0 mi Calm Calm - N/A   Clear
9:12 AM 44.6 °F - 23.0 °F 43% 30.02 in 10.0 mi Calm Calm - N/A   Clear
9:35 AM 46.4 °F - 23.0 °F 40% 30.02 in 10.0 mi Calm Calm - N/A   Clear
9:55 AM 46.4 °F - 26.6 °F 46% 30.01 in 10.0 mi Calm Calm - N/A   Clear
10:15 AM 46.4 °F - 24.8 °F 43% 30.01 in 10.0 mi Calm Calm - N/A   Clear
10:35 AM 48.2 °F - 26.6 °F 43% 30.02 in 10.0 mi Calm Calm - N/A   Clear
10:55 AM 50.0 °F - 26.6 °F 40% 30.02 in 10.0 mi SSW 3.5 mph - N/A   Clear
11:14 AM 51.8 °F - 26.6 °F 38% 30.02 in 10.0 mi SW 4.6 mph - N/A   Clear
11:34 AM 51.8 °F - 28.4 °F 41% 30.01 in 10.0 mi WSW 3.5 mph - N/A   Clear
11:56 AM 53.6 °F - 26.6 °F 35% 30.01 in 10.0 mi South 3.5 mph - N/A   Clear
12:16 PM 53.6 °F - 28.4 °F 38% 30.00 in 10.0 mi SSW 4.6 mph - N/A   Clear
12:35 PM 55.4 °F - 28.4 °F 36% 30.00 in 10.0 mi WSW 3.5 mph - N/A   Clear
12:55 PM 55.4 °F - 28.4 °F 36% 30.01 in 10.0 mi Calm Calm - N/A   Clear
1:16 PM 57.2 °F - 28.4 °F 33% 30.00 in 10.0 mi South 4.6 mph - N/A   Clear
1:36 PM 57.2 °F - 28.4 °F 33% 29.99 in 10.0 mi SSW 3.5 mph - N/A   Clear
1:56 PM 57.2 °F - 28.4 °F 33% 29.99 in 10.0 mi SW 5.8 mph - N/A   Clear
2:16 PM 55.4 °F - 28.4 °F 36% 29.99 in 10.0 mi South 3.5 mph - N/A   Clear
2:36 PM 59.0 °F - 28.4 °F 31% 29.99 in 10.0 mi Calm Calm - N/A   Clear
2:55 PM 57.2 °F - 28.4 °F 33% 29.98 in 10.0 mi South 4.6 mph - N/A   Clear
3:16 PM 55.4 °F - 28.4 °F 36% 29.99 in 10.0 mi SSW 3.5 mph - N/A   Clear
3:36 PM 55.4 °F - 28.4 °F 36% 29.99 in 10.0 mi SW 3.5 mph - N/A   Clear
3:55 PM 55.4 °F - 28.4 °F 36% 29.99 in 10.0 mi South 4.6 mph - N/A   Clear
4:15 PM 53.6 °F - 28.4 °F 38% 29.99 in 10.0 mi South 3.5 mph - N/A   Clear
4:36 PM 53.6 °F - 24.8 °F 33% 30.00 in 10.0 mi Calm Calm - N/A   Clear
4:56 PM 55.4 °F - 28.4 °F 36% 30.00 in 10.0 mi Calm Calm - N/A   Clear
5:15 PM 51.8 °F - 28.4 °F 41% 30.00 in 10.0 mi South 3.5 mph - N/A   Clear
5:34 PM 51.8 °F - 28.4 °F 41% 30.00 in 10.0 mi Calm Calm - N/A   Clear
5:56 PM 48.2 °F - 28.4 °F 46% 30.01 in 10.0 mi Calm Calm - N/A   Clear
6:16 PM 46.4 °F - 28.4 °F 50% 30.00 in 10.0 mi Calm Calm - N/A   Mostly Cloudy
6:34 PM 46.4 °F 45.2 °F 28.4 °F 50% 30.00 in 10.0 mi SW 3.5 mph - N/A   Overcast
6:55 PM 44.6 °F - 28.4 °F 53% 30.00 in 10.0 mi Calm Calm - N/A   Mostly Cloudy
7:16 PM 44.6 °F - 26.6 °F 49% 30.00 in 10.0 mi Calm Calm - N/A   Scattered Clouds
7:33 PM 44.6 °F - 26.6 °F 49% 30.02 in 10.0 mi Calm Calm - N/A   Scattered Clouds
7:56 PM 44.6 °F - 26.6 °F 49% 30.02 in 10.0 mi Calm Calm - N/A   Mostly Cloudy
8:16 PM 44.6 °F - 26.6 °F 49% 30.02 in 10.0 mi Calm Calm - N/A   Overcast
8:35 PM 46.4 °F - 26.6 °F 46% 30.03 in 10.0 mi Calm Calm - N/A   Overcast
8:56 PM 46.4 °F - 26.6 °F 46% 30.02 in 10.0 mi Calm Calm - N/A   Overcast
9:15 PM 46.4 °F - 26.6 °F 46% 30.02 in 10.0 mi Calm Calm - N/A   Overcast
9:36 PM 46.4 °F - 26.6 °F 46% 30.03 in 10.0 mi Calm Calm - N/A   Overcast
9:56 PM 46.4 °F - 28.4 °F 50% 30.03 in 10.0 mi Calm Calm - N/A   Overcast
10:15 PM 44.6 °F 41.4 °F 30.2 °F 57% 30.03 in 10.0 mi SSW 5.8 mph - N/A Rain Light Rain
10:36 PM 44.6 °F - 32.0 °F 61% 30.02 in 10.0 mi Calm Calm - N/A   Overcast
10:56 PM 44.6 °F 43.1 °F 32.0 °F 61% 30.03 in 10.0 mi SSW 3.5 mph - N/A   Overcast
11:16 PM 42.8 °F 41.1 °F 32.0 °F 66% 30.02 in 10.0 mi South 3.5 mph - N/A   Overcast
11:36 PM 42.8 °F - 32.0 °F 66% 30.04 in 10.0 mi Calm Calm - N/A   Overcast
11:55 PM 42.8 °F - 32.0 °F 66% 30.04 in 10.0 mi Calm Calm - N/A   Overcast